Voltar ao catálogo

STARLINK-35958

AtivoComunicaçõesVLEO
NORAD 66822·PAYLOAD·🇺🇸 United States

Lançado Dec 2, 2025 de Vandenberg Space Force Base

Loading…

Próximas Passagens (próximas 24 horas)

TLE

AtualizadoSource: CelesTrak SupGP

Época: Sep 15, 2026, 02:48 UTC

1 66822C 25280B   26258.11715278 -.00020943  00000+0 -17552-2 0  2585
2 66822  70.0009 216.8285 0003448 266.7491 343.6515 14.98338799    17

Acompanhe STARLINK-35958 em tempo real com AllMySat

Download on the App Store